CAPE
4 5 50 800 1046 1611 1414 1419 1163 1144 1003 877 801 1028 857 1166 879 896 777 1093 826 1041 1540 1529 1396 1254 1217 1347 1148 1455 1374 1348 910 281 356 520 1033 925 645 389 28 292 589
5 142 979 1341 1455 1582 1520 1110 1182 1307 1270 1114 1082 1145 1090 824 685 903 683 983 980 959 1397 1486 1360 1364 1265 1171 1208 907 599 828 504 881 509 724 1053 993 931 876 1010 1134 1103
153 514 1060 1395 1658 1455 1545 1255 1326 1175 1199 1141 1246 1024 1232 914 445 783 1177 1216 1182 1150 1279 1239 1247 1256 1492 1379 1425 1443 1042 489 876 760 873 640 904 1182 776 686 552 772 933
491 499 832 1829 1995 1644 1601 1582 1271 1229 1286 1254 1146 1365 1311 934 804 1099 1346 1393 1326 1395 1197 986 985 1183 1543 1422 1176 1147 1283 661 980 683 303 10 3 716 444 305 210 974 573
607 777 1567 1964 1814 1775 1780 1741 1497 1443 1369 1480 1342 1363 1371 1032 928 1438 1484 1652 1481 1356 1400 1296 986 1146 1382 1436 806 163 0 15 359 543 343 0 0 181 880 1106 906 889 782
559 1316 1957 2171 2153 1868 1920 1627 1483 1613 1569 1540 1427 1454 1270 1293 1239 1531 1469 1561 1640 1423 1462 1321 1217 1174 1536 925 775 344 729 622 798 274 83 0 0 995 1104 930 687 525 80
1230 1585 1958 2114 2144 1898 1924 1856 1765 1669 1803 1797 1460 1419 1596 1311 1686 1894 1737 1668 1429 1391 1408 1485 1324 1079 1205 1306 749 148 99 412 739 581 663 11 417 1104 1103 768 100 779 1112
1549 1180 1744 2087 2019 2063 1984 1874 1802 1829 1815 1787 1494 1328 1486 1590 1582 1488 1759 1503 1235 1289 1125 1265 1335 1262 957 1380 557 0 126 271 1075 554 541 769 1039 1450 1339 844 402 274 139
1026 1238 1514 1692 1929 1904 1935 1959 1789 1830 1705 1686 1645 1465 1570 1585 1482 1753 1611 1550 1222 1606 1456 931 1125 934 914 1111 380 66 227 638 891 648 335 26 69 626 665 565 1059 1173 1015
814 1013 1217 1571 1686 1539 1731 1902 1824 1830 1755 1800 1888 1925 1706 1465 1547 1717 1540 1108 1368 1145 1336 1164 1130 1034 864 767 588 380 463 638 546 552 511 24 414 558 438 33 22 583 245
1104 920 1088 1370 1451 1523 1662 1918 1857 1916 1884 1700 1870 1955 1864 1203 1329 1300 1282 991 1151 1453 1315 1350 1326 1112 1304 1045 542 433 569 350 619 249 35 0 332 773 1214 668 91 79 223
1316 1063 973 1077 1216 1295 858 1682 1650 1686 1616 1758 1519 1672 1789 1517 1342 1464 1175 1154 909 1220 1429 1433 1419 1244 917 655 389 344 141 319 791 17 0 0 282 991 1735 1091 526 187 26
1445 1228 1181 884 905 930 871 1031 1276 1447 1619 1668 1429 1772 1613 1500 1195 1449 1380 1301 935 830 1121 1354 1387 1184 536 628 424 26 134 233 393 295 24 0 0 306 1182 1076 633 117 21
1080 1385 1371 1249 983 791 1631 1158 1422 1331 1335 1267 1114 1448 1593 1081 739 1192 1314 1376 1322 953 520 768 1024 451 122 52 290 126 20 241 80 672 124 147 91 162 285 538 488 371 212
1050 1250 1558 1645 1446 1021 1834 1521 1311 1457 1571 1383 1072 1970 1725 1502 1534 1236 995 1127 1194 1240 882 890 952 220 83 166 213 278 298 314 345 1279 796 483 375 380 452 518 466 581 823
1278 1367 1451 2249 1711 1388 1645 1712 1563 1564 1124 1718 1547 1889 1450 1192 1570 1625 1122 765 759 840 918 1016 628 586 441 351 97 118 186 268 305 759 1280 897 688 736 683 713 669 587 859
1489 1478 1726 1981 2315 1688 1995 1691 1620 1195 1627 1865 1663 2042 1344 1251 1214 1157 845 922 1173 870 906 634 307 766 673 621 30 14 231 415 524 574 305 907 824 1109 639 854 856 548 644
1635 1570 1738 1803 2300 2287 1965 1816 1648 1308 757 1267 1768 2321 1426 1006 1424 1142 1375 1319 1308 1001 586 322 238 708 717 442 162 109 94 146 611 263 889 1101 1515 1358 775 590 796 859 554
1935 1790 1951 1831 2172 2274 1774 2422 2039 1167 1436 549 1371 2440 1774 1224 1429 1112 901 700 1199 973 845 608 438 729 625 176 171 34 61 360 396 474 651 409 1216 1209 876 978 650 273 335
2190 2070 2042 2380 1859 2385 2318 2171 1836 1757 1271 949 824 1483 2184 1840 1536 1249 1551 1061 1228 1104 766 298 440 638 458 348 94 61 37 56 246 375 381 624 751 812 1218 1242 879 712 528
2288 2306 2309 2066 2307 2045 1899 2099 2022 1329 1387 1294 977 1037 1899 1434 1403 1102 974 1231 1248 633 504 541 198 256 456 188 217 45 278 207 302 204 104 48 400 875 896 1462 1282 987 1219
2368 2455 2508 2279 2390 2345 1906 2155 2099 1835 1363 1340 1261 1057 1663 1532 1615 1373 1034 1006 996 828 889 694 865 183 114 185 70 201 141 217 416 185 140 231 253 756 717 862 1449 1441 694
1602 2698 2719 2378 2066 2524 2218 1953 2065 1831 1471 1195 1051 1224 1697 1728 1624 1520 1194 844 1539 973 983 764 807 568 341 175 263 86 53 8 114 113 212 173 208 182 464 797 846 982 1289
1314 1548 3156 2459 1929 2105 2055 1844 1963 1618 1494 1297 1178 1123 1546 1775 1706 1671 1698 1106 1249 1499 1119 840 808 581 295 581 376 99 11 172 264 353 352 630 426 78 4 713 1295 1448 1205
1098 2891 3023 2626 2328 2096 2059 1713 1668 1761 1344 1752 1475 1343 1402 1390 1427 1793 1624 1940 1142 1650 1371 1412 953 713 376 143 751 481 70 339 313 721 299 341 465 83 8 1018 1096 533 187
549 1335 2891 2769 2484 1959 1912 1969 1622 1475 1591 1460 1816 1669 1567 1662 1529 1556 1747 1596 1795 1501 1404 1861 1604 1462 962 888 857 746 532 669 656 653 399 224 515 868 829 1176 1176 140 157
CIN
-113 -208 -116 -7 -0 -0 -1 -0 -2 -0 -0 -11 -17 -0 -6 -0 -0 -3 -4 -0 -4 -2 -0 -0 -2 -4 -6 -3 -6 -1 -6 -5 -15 -44 -42 -23 -0 -2 -8 -36 -43 -46 -13
-97 -120 -37 -0 -0 -0 -3 -2 -1 -0 -0 -0 -0 -0 -0 -15 -11 -1 -10 -3 -2 -3 -0 -0 -0 -0 -1 -1 -2 -6 -24 -19 -31 -7 -21 -7 -0 -0 -2 -1 -1 -0 -0
-96 -61 -23 -8 -0 -3 -1 -3 -0 -0 -0 -0 -0 -9 -0 -3 -46 -5 -1 -1 -1 -1 -0 -0 -0 -0 -0 -0 -0 -2 -11 -29 -15 -11 -4 -3 -0 -0 -8 -17 -16 -2 -0
-57 -70 -42 -0 -0 -3 -3 -0 -1 -1 -0 -0 -0 -0 -0 -13 -10 -2 -0 -0 -1 -1 -0 -1 -1 -0 -0 -0 -7 -19 -14 -28 -15 -7 -9 -31 -2 -7 -21 -51 -59 -1 -12
-57 -29 -27 -8 -12 -7 -1 -1 -1 -0 -0 -0 -0 -0 -0 -8 -5 -0 -0 -0 -0 -0 -0 -0 -1 -0 -0 -0 -18 -50 -0 -14 -43 -23 -13 -0 -0 -47 -4 -0 -3 -1 -1
-16 -22 -22 -1 -0 -2 -0 -3 -2 -0 -0 -0 -0 -0 -3 -2 -2 -0 -0 -0 -0 -0 -0 -0 -0 -0 -0 -12 -24 -41 -43 -52 -21 -26 -16 -0 -0 -2 -0 -0 -4 -6 -101
-6 -50 -18 -3 -0 -1 -0 -0 -0 -0 -0 -0 -1 -0 -0 -1 -0 -0 -0 -1 -1 -0 -0 -0 -0 -1 -0 -0 -28 -54 -65 -61 -40 -11 -7 -2 -48 -0 -0 -7 -73 -1 -0
-29 -63 -24 -1 -1 -0 -0 -0 -0 -0 -0 -0 -7 -9 -2 -1 -0 -4 -0 -2 -6 -2 -2 -0 -0 -1 -1 -0 -34 -0 -82 -71 -26 -15 -24 -53 -29 -0 -0 -3 -19 -38 -69
-83 -82 -30 -6 -0 -0 -0 -0 -0 -1 -0 -2 -1 -2 -1 -2 -5 -1 -1 -1 -3 -0 -0 -6 -1 -0 -2 -1 -49 -79 -68 -56 -48 -19 -58 -23 -22 -30 -20 -13 -0 -0 -0
-117 -117 -65 -22 -0 -3 -0 -0 -0 -0 -1 -1 -1 -0 -0 -1 -5 -0 -1 -7 -1 -13 -1 -1 -0 -0 -5 -25 -43 -64 -72 -66 -47 -16 -39 -19 -79 -47 -44 -124 -129 -8 -41
-99 -132 -86 -47 -18 -1 -0 -0 -1 -0 -0 -0 -0 -0 -0 -7 -3 -0 -7 -5 -9 -1 -0 -2 -0 -0 -0 -25 -63 -80 -92 -86 -25 -13 -20 -0 -110 -57 -3 -28 -101 -104 -52
-73 -102 -109 -72 -44 -23 -38 -3 -0 -0 -1 -0 -2 -1 -1 -0 -21 -5 -3 -7 -19 -3 -0 -0 -1 -0 -19 -42 -63 -89 -99 -73 -24 -71 -0 -0 -106 -56 -0 -7 -43 -79 -150
-46 -76 -89 -107 -91 -63 -42 -39 -4 -2 -1 -2 -8 -4 -21 -3 -5 -1 -7 -6 -13 -15 -3 -0 -0 -7 -36 -23 -14 -43 -50 -49 -27 -53 -104 -0 -0 -94 -35 -23 -41 -111 -179
-84 -54 -71 -80 -106 -77 -30 -33 -9 -9 -6 -20 -28 -16 -7 -21 -14 -8 -10 -0 -6 -12 -25 -12 -8 -37 -46 -36 -8 -15 -17 -10 -16 -31 -107 -103 -90 -103 -96 -76 -70 -73 -100
-110 -57 -46 -44 -71 -60 -4 -18 -21 -18 -7 -44 -48 -17 -8 -25 -14 -33 -24 -9 -16 -18 -12 -2 -6 -10 -27 -19 -9 -19 -9 -9 -6 -23 -55 -53 -64 -78 -91 -89 -89 -66 -35
-92 -62 -50 -8 -54 -45 -20 -13 -18 -16 -15 -14 -50 -46 -51 -58 -31 -28 -24 -34 -22 -12 -14 -19 -18 -8 -15 -8 -20 -20 -22 -10 -3 -27 -33 -50 -68 -75 -73 -79 -80 -84 -53
-83 -59 -41 -16 -9 -17 -8 -13 -12 -9 -13 -28 -40 -31 -57 -43 -55 -51 -34 -23 -2 -12 -20 -26 -26 -15 -6 -3 -53 -52 -17 -9 -6 -6 -14 -47 -39 -41 -62 -69 -67 -86 -86
-65 -58 -25 -38 -7 -3 -7 -4 -14 -13 -9 -6 -20 -26 -48 -46 -33 -30 -11 -12 -4 -6 -27 -43 -40 -16 -10 -8 -21 -40 -34 -18 -8 -6 -5 -6 -23 -38 -67 -80 -73 -53 -77
-29 -39 -12 -19 -7 -5 -5 -1 -3 -12 -3 -21 -6 -19 -56 -48 -37 -30 -34 -42 -15 -7 -8 -18 -24 -9 -5 -18 -21 -69 -55 -7 -9 -3 -7 -6 -6 -21 -36 -59 -59 -66 -85
-16 -46 -22 -5 -20 -8 -5 -3 -2 -1 -4 -21 -11 -8 -36 -34 -30 -28 -6 -20 -14 -10 -17 -47 -21 -6 -8 -23 -29 -41 -72 -45 -22 -4 -10 -7 -8 -10 -27 -41 -59 -66 -73
-11 -31 -34 -30 -22 -25 -11 -3 -1 -19 -2 -2 -7 -6 -37 -45 -32 -31 -23 -3 -6 -12 -11 -25 -50 -16 -8 -12 -7 -54 -14 -21 -14 -26 -40 -31 -3 -3 -5 -31 -44 -57 -40
-13 -15 -23 -24 -12 -27 -27 -6 -1 -0 -2 -0 -2 -3 -29 -30 -36 -31 -34 -18 -13 -10 -9 -12 -4 -55 -63 -29 -56 -6 -3 -11 -6 -34 -34 -15 -6 -6 -7 -8 -23 -22 -10
-10 -8 -25 -20 -20 -6 -3 -12 -2 -2 -3 -21 -27 -7 -4 -17 -40 -61 -79 -56 -5 -20 -12 -27 -28 -25 -54 -65 -45 -46 -26 -20 -6 -28 -31 -28 -36 -44 -27 -7 -6 -9 -15
-27 -47 -32 -48 -39 -31 -31 -7 -1 -9 -9 -15 -32 -17 -3 -6 -6 -12 -19 -69 -31 -12 -22 -46 -50 -54 -71 -39 -50 -86 -38 -30 -14 -11 -26 -21 -34 -77 -17 -39 -10 -9 -11
-38 -10 -27 -31 -27 -12 -18 -32 -11 -2 -22 -1 -3 -4 -6 -16 -12 -3 -13 -5 -45 -16 -36 -17 -46 -70 -95 -116 -30 -51 -92 -34 -44 -10 -15 -30 -52 -107 -8 -38 -24 -40 -28
-75 -13 -3 -11 -11 -19 -8 -5 -16 -21 -6 -3 -2 -1 -7 -12 -34 -14 -1 -4 -1 -14 -27 -4 -15 -28 -51 -46 -45 -17 -35 -33 -37 -43 -47 -59 -34 -21 -36 -18 -31 -84 -71
Wind_Speed
22 25 27 27 21 20 19 20 23 22 22 15 8 10 11 10 11 11 11 9 7 4 3 3 2 2 2 2 5 5 7 9 12 17 22 22 16 24 29 31 25 27 28
29 27 29 26 24 22 21 20 21 22 23 17 9 10 9 12 8 7 7 5 4 2 2 5 3 1 0 1 2 4 12 23 25 26 25 19 4 2 22 24 24 28 27
28 26 27 27 26 23 21 21 24 22 20 7 7 11 7 7 11 6 4 4 2 1 2 3 3 2 3 3 5 3 26 30 31 31 30 21 4 9 18 23 26 26 26
28 27 25 26 26 25 24 23 23 22 21 15 10 7 12 8 7 4 2 3 2 2 3 4 4 4 4 5 6 18 23 25 26 27 11 23 11 10 20 24 25 25 25
29 28 27 27 26 26 25 24 24 22 20 15 7 8 7 5 6 5 1 1 3 4 5 7 6 6 5 6 12 20 23 23 21 17 18 14 12 23 25 26 26 25 25
29 27 28 28 26 27 25 24 22 19 16 14 7 5 6 2 4 5 3 4 6 7 7 7 7 6 6 7 15 20 18 17 17 20 6 12 13 23 25 21 22 24 24
26 26 28 27 26 26 25 24 21 17 12 9 4 7 5 9 9 4 6 6 7 7 8 9 8 9 10 13 18 20 18 15 14 17 12 13 16 19 21 21 22 24 24
26 27 26 25 24 24 24 24 22 18 13 7 5 4 7 9 9 9 9 10 9 9 11 11 11 12 13 15 18 20 18 15 14 10 12 14 15 17 19 21 22 23 23
27 25 25 24 23 22 21 21 21 20 16 9 2 3 2 13 9 11 12 13 14 10 12 12 12 13 14 17 18 20 19 16 14 6 12 14 16 16 19 20 20 21 21
25 24 23 23 23 22 20 19 19 20 19 15 8 2 9 13 13 13 15 15 15 13 13 14 12 13 13 15 18 21 20 18 18 11 12 16 17 16 17 16 19 20 20
23 23 23 22 22 21 19 18 17 17 17 18 11 5 10 14 17 19 20 15 17 15 15 16 13 12 13 18 21 22 19 19 19 8 9 15 15 14 15 15 16 19 19
22 22 22 21 21 21 19 14 14 14 14 13 12 3 12 19 16 18 18 9 15 17 17 17 14 14 16 19 22 23 21 20 18 5 10 14 13 12 15 14 13 16 18
20 21 22 21 20 20 16 15 14 12 12 11 11 5 17 18 16 16 13 12 15 18 18 16 17 19 24 26 14 7 23 21 17 8 11 13 13 12 13 13 11 13 16
19 19 20 20 20 21 14 14 13 12 12 10 7 4 22 16 11 14 15 15 15 19 22 17 18 23 27 28 25 26 18 16 14 14 8 11 11 12 12 12 10 10 12
18 17 18 19 19 20 16 14 13 15 15 13 14 16 17 15 15 14 19 19 18 21 23 23 25 24 26 24 22 20 21 20 9 7 8 8 9 9 10 10 9 9 9
16 16 16 16 16 17 16 17 14 13 16 13 16 15 6 2 16 10 22 18 25 18 24 23 25 23 23 26 23 23 24 24 18 6 9 7 17 6 9 8 8 8 7
14 15 16 16 15 15 16 15 13 13 11 12 13 15 17 3 2 22 24 29 26 2 14 21 22 20 23 22 25 26 26 26 25 15 14 7 8 7 7 6 7 8 8
11 13 13 14 14 13 14 12 15 14 11 10 12 8 14 15 11 6 3 30 29 2 5 15 27 25 23 24 22 28 24 29 27 27 23 18 7 8 5 4 3 8 6
7 10 10 11 11 13 13 10 13 12 7 14 8 9 10 12 12 12 15 13 30 10 3 3 12 24 19 25 25 20 25 24 27 25 12 23 15 6 8 4 5 8 9
3 7 8 7 9 9 8 13 10 9 9 8 11 8 9 8 6 8 11 17 4 3 2 2 6 14 20 14 21 13 12 20 28 25 26 12 12 11 8 5 1 1 6
1 4 6 7 7 8 9 12 11 10 8 9 8 3 9 8 6 6 9 13 5 6 10 5 4 16 18 19 20 27 19 14 13 16 21 27 25 11 16 6 4 3 2
2 4 5 7 7 8 8 7 9 7 10 8 7 7 8 8 8 8 8 13 8 11 14 20 10 10 16 17 23 24 25 21 13 8 9 21 25 15 9 6 3 4 10
7 3 6 6 8 9 9 9 8 8 7 9 8 7 7 9 10 10 11 16 9 10 12 12 12 13 11 12 14 20 21 24 22 13 8 8 15 19 23 17 12 13 7
21 12 2 5 7 10 13 13 13 13 12 10 10 9 8 8 10 11 11 15 11 8 10 11 10 12 11 16 17 18 30 23 22 19 12 12 17 18 19 22 18 17 8
26 11 4 5 7 9 11 15 16 18 17 16 13 11 13 13 14 13 14 12 15 9 10 9 10 13 14 16 20 14 20 24 17 22 20 19 18 12 11 15 13 22 27
24 22 11 8 9 11 12 15 19 21 23 21 20 17 14 12 14 16 15 15 14 14 12 10 10 10 14 14 14 8 15 18 17 19 22 27 27 21 15 13 13 16 29
Wind_Direction
101 104 105 114 88 81 81 84 90 90 89 77 82 86 97 97 101 101 95 89 87 115 75 55 98 80 98 52 32 30 31 35 41 50 62 61 52 138 122 97 67 72 77
111 110 122 110 98 87 83 82 84 87 86 81 100 97 105 91 111 118 104 97 87 86 63 35 24 24 219 243 7 15 41 70 74 73 69 55 31 181 85 69 62 80 71
107 105 110 107 103 95 86 84 92 89 86 112 139 98 104 112 94 156 130 80 65 53 2 347 349 330 245 239 213 205 127 103 107 100 87 59 14 31 51 62 73 74 74
106 109 104 107 103 99 94 91 94 93 91 87 173 166 88 104 96 168 141 63 21 345 307 258 304 280 258 236 214 171 155 148 141 134 150 68 32 29 57 71 78 77 73
108 107 106 110 107 104 100 97 98 96 94 89 114 180 177 110 186 209 207 334 282 295 283 257 274 267 262 237 197 170 158 155 159 178 177 41 36 77 81 85 87 90 79
112 103 109 112 110 109 105 102 98 95 91 90 98 188 188 134 197 233 266 286 276 276 273 270 266 269 260 238 196 180 181 182 180 164 209 41 45 81 96 64 67 80 82
102 102 109 111 111 110 108 106 101 97 90 88 119 203 209 213 222 262 267 281 290 279 273 261 265 255 238 218 195 190 189 202 202 175 46 44 57 63 76 71 78 93 89
102 107 110 110 110 109 109 107 105 99 92 89 91 91 224 228 238 246 259 263 273 290 265 261 260 245 237 217 201 194 199 207 213 119 52 47 55 61 72 84 90 102 100
107 106 112 114 112 110 109 107 109 105 100 89 80 238 257 234 256 255 255 253 249 287 276 264 262 244 239 219 209 202 205 214 221 213 46 51 68 68 84 90 91 98 110
106 111 115 115 118 118 113 110 110 111 109 104 90 70 254 247 255 263 254 258 257 271 271 257 268 251 246 228 214 203 212 222 209 219 63 69 75 74 87 76 102 112 108
103 113 120 118 122 122 115 112 110 109 110 115 102 284 262 256 251 244 246 260 256 263 261 248 263 260 247 224 208 208 219 218 222 259 33 75 75 74 89 76 85 117 124
105 113 123 124 125 126 122 112 112 112 114 116 111 49 269 248 253 250 247 286 262 252 252 250 261 255 244 230 212 211 217 221 244 6 50 74 67 70 106 90 84 111 139
113 114 122 128 130 135 123 122 122 119 121 121 126 108 259 261 255 254 262 275 260 250 249 256 253 247 229 217 273 311 205 219 259 28 68 87 71 70 91 97 82 100 125
125 118 122 129 134 144 125 128 129 129 129 125 133 139 251 271 296 266 266 262 266 249 238 259 255 238 223 213 231 216 184 270 282 280 59 88 74 85 94 101 89 90 112
130 127 124 128 134 142 131 132 136 143 141 135 137 144 252 263 272 275 252 256 257 246 242 247 240 242 238 247 253 259 257 263 337 16 360 23 43 79 95 97 94 87 94
133 135 130 125 132 138 140 149 141 142 155 142 141 138 144 249 270 289 248 263 244 258 239 249 240 250 245 241 256 250 250 252 285 354 357 14 318 40 121 97 95 93 87
138 140 136 135 133 142 145 146 144 147 125 139 145 150 149 237 132 250 246 224 231 105 276 260 251 262 254 259 257 248 250 253 258 296 306 347 44 89 122 113 109 118 109
138 145 143 139 142 145 151 138 151 152 150 131 145 138 155 156 150 280 284 222 220 342 272 268 246 252 261 257 265 252 262 247 255 259 271 296 354 4 67 99 86 146 129
141 146 149 148 139 147 156 152 154 156 133 163 136 149 157 159 159 160 165 256 236 261 289 137 248 254 269 263 265 275 266 272 265 273 304 276 306 342 342 1 113 159 173
137 154 164 162 160 147 150 166 165 161 164 159 163 152 162 162 166 170 164 173 193 194 220 248 278 272 271 279 277 287 290 282 269 279 278 303 305 310 323 337 159 29 185
89 174 183 186 183 179 173 173 172 175 172 173 173 186 162 168 183 197 179 280 194 263 284 191 280 278 278 278 280 273 284 289 293 293 288 277 284 303 308 315 307 321 332
119 174 194 215 220 209 203 203 194 190 181 188 188 187 182 182 182 192 202 269 251 268 277 276 279 282 282 282 276 277 277 283 289 289 294 288 284 303 311 305 279 281 315
12 210 215 222 231 236 243 246 238 231 216 197 210 222 209 195 193 194 194 192 257 253 266 266 275 276 281 282 279 276 281 281 288 289 275 293 302 298 297 305 310 313 300
343 344 216 241 234 240 239 252 249 246 238 233 222 215 231 216 209 202 201 195 205 231 251 253 247 196 270 281 278 271 265 285 290 294 292 293 302 305 307 299 307 311 302
337 15 352 307 267 259 249 239 251 252 253 268 254 230 211 222 218 216 209 212 204 227 217 221 222 206 204 192 274 278 275 280 287 284 287 295 306 310 310 302 307 307 304
342 343 356 340 310 294 279 262 255 261 262 261 262 258 248 236 223 215 216 217 221 216 221 224 216 216 204 207 207 233 275 280 281 284 288 291 293 302 306 306 307 311 306